Flag for U.S.A. Weather past 2 weeks in Sierra Vista, Arizona, U.S.A.

Now
69 °F

Overcast.


Feels Like: 69 °F
Forecast: 68 / 85 °F
Wind: 1 mph from Southeast

Location: Fort Huachuca

Current Time: Aug 2, 2015 at 2:09:42 AM

Latest Report: Aug 2, 2015 at 1:58 AM


Visibility: 10 mi

Pressure: 29.91 "Hg (25.44 "Hg at 1390m altitude)

Humidity: 70%

Dew point: 59 °F

Location of Sierra VistaLocation

Historic Weather in Sierra Vista — Graph

°F

Sierra Vista temperature yesterday

Maximum temperature yesterday: 83 °F (at 10:58 AM)
Minimum temperature yesterday: 64 °F (at 5:58 AM)
Average temperature yesterday: 71 °F

Past Weeks' High & Low Weather Summary

 TemperatureHumidityPressure
High91 °F (Jul 26, 3:58 PM)95% (Jul 31, 8:58 PM)30.28 "Hg (Jul 31, 8:58 PM)
Low62 °F (Jul 19, 4:58 AM)16% (Jul 26, 2:58 PM)29.78 "Hg (Jul 21, 3:58 PM)
Average75 °F61%29.97 "Hg
* Reported Jul 18 12:58 AM — Aug 2 12:58 AM, Sierra Vista, Weather by CustomWeather, © 2015

Note: Actual official high and low records may vary slightly from our data, if they occured in-between our weather recording intervals... More about our weather records

Advertising

Sierra Vista weather history for previous 24 hours

 ConditionsComfort  
Time TempWeatherWind HumidityBarometerVisibility
12:58 AM
Sun, Aug 2
67 °FLight rain. Passing clouds.2 mph84%29.92 "Hg10 mi
11:58 PM
Sat, Aug 1
67 °FPassing clouds.3 mph86%29.94 "Hg10 mi
11:01 PM68 °FLight rain. Passing clouds.2 mph78%30.14 "Hg8 mi
10:58 PM68 °FClear.3 mph79%29.92 "Hg9 mi
9:58 PM69 °FLight rain. Partly cloudy.10 mph71%29.93 "Hg8 mi
8:58 PM69 °FPassing clouds.8 mph73%29.90 "Hg10 mi
7:58 PM68 °FLight rain. Overcast.15 mph75%29.94 "Hg8 mi
6:59 PM70 °FOvercast.15 mph73%30.13 "Hg7 mi
6:58 PM69 °FLight rain. Overcast.16 mph76%29.93 "Hg7 mi
5:58 PM72 °FLight rain. Overcast.12 mph68%29.93 "Hg6 mi
4:58 PM73 °FLight rain. Partly sunny.2 mph57%29.92 "Hg4 mi
4:02 PM73 °FThundershowers. Overcast.8 mph74%30.11 "Hg5 mi
3:51 PM73 °FOvercast.13 mph69%30.11 "Hg5 mi
2:58 PM78 °FMostly cloudy.6 mph61%29.93 "Hg5 mi
2:03 PM72 °FThundershowers. Broken clouds.14 mph73%30.16 "Hg2 mi
1:03 PM70 °FThunderstorms. Cloudy.18 mph78%30.17 "Hg2 mi
12:03 PM72 °FThundershowers. Partly sunny.18 mph78%30.17 "Hg4 mi
10:58 AM83 °FPassing clouds.9 mph52%29.97 "Hg9 mi
9:58 AM81 °FSunny.8 mph54%29.98 "Hg8 mi
8:58 AM78 °FSunny.8 mph58%29.98 "Hg7 mi
7:58 AM74 °FScattered clouds.9 mph65%29.99 "Hg7 mi
6:58 AM69 °FSunny.6 mph79%29.99 "Hg7 mi
5:58 AM64 °FSunny.2 mph90%29.98 "Hg8 mi
4:58 AM65 °FClear.1 mph89%29.96 "Hg10 mi
3:58 AM66 °FClear.7 mph81%29.94 "Hg10 mi
2:58 AM66 °FClear.9 mph82%29.93 "Hg10 mi
Weather by CustomWeather, © 2015

See weather overviewHow to use our weather pages